Flag for Austria Weather past 2 weeks in Eferding, Upper Austria, Austria

Now
66 °F

Partly sunny.


Feels Like: 66 °F
Forecast: 60 / 78 °F
Wind: N/A

Location: Linz / Hoersching-Flughafen

Current Time: Aug 2, 2014 at 7:29:39 AM

Latest Report: Aug 2, 2014 at 6:00 AM


Visibility: 6 mi

Pressure: 29.81 "Hg

Humidity: 90%

Dew point: 63 °F

Location of EferdingLocation

Historic Weather in Eferding — Graph

°F

Eferding temperature yesterday

Maximum temperature yesterday: 76 °F (at 6:00 PM)
Minimum temperature yesterday: 62 °F (at 4:00 AM)
Average temperature yesterday: 69 °F

Past Weeks' High & Low Weather Summary

 TemperatureHumidityPressure
High95 °F (Jul 20, 5:00 PM)100% (Jul 23, 3:00 AM)30.14 "Hg (Jul 23, 3:00 AM)
Low53 °F (Jul 24, 6:00 AM)24% (Jul 20, 5:00 PM)29.65 "Hg (Jul 29, 8:00 PM)
Average70 °F75%29.86 "Hg
* Reported Jul 18 6:00 AM — Aug 2 6:00 AM, Eferding, Weather by CustomWeather, © 2014

Note: Actual official high and low records may vary slightly from our data, if they occured in-between our weather recording intervals... More about our weather records

Advertising

Eferding weather history for previous 24 hours

 ConditionsComfort  
Time TempWeatherWind HumidityBarometerVisibility
6:00 AM
Aug 2
66 °FPartly sunny.N/A90%29.81 "Hg6 mi
5:00 AM65 °FPassing clouds.N/A90%29.81 "Hg6 mi
4:00 AM65 °FPassing clouds.3 mph91%29.81 "Hg6 mi
3:00 AM67 °FOvercast.N/A86%29.80 "Hg9 mi
2:00 AM66 °FPassing clouds.N/A88%29.82 "Hg7 mi
1:00 AM67 °FOvercast.N/A89%29.83 "Hg8 mi
12:00 AM69 °FOvercast.N/A82%29.84 "Hg11 mi
11:00 PM
Aug 1
70 °FOvercast.N/A79%29.84 "Hg11 mi
10:00 PM72 °FOvercast.3 mph73%29.84 "Hg19 mi
9:00 PM72 °FOvercast.5 mph70%29.82 "Hg28 mi
8:00 PM73 °FScattered clouds.5 mph66%29.82 "Hg28 mi
7:00 PM75 °FScattered clouds.3 mph65%29.81 "Hg25 mi
6:00 PM76 °FScattered clouds.5 mph63%29.80 "Hg22 mi
5:00 PM74 °FPartly sunny.5 mph65%29.82 "Hg7 mi
4:00 PM74 °FScattered clouds.5 mph65%29.83 "Hg22 mi
3:00 PM74 °FScattered clouds.6 mph70%29.85 "Hg22 mi
2:00 PM73 °FPartly sunny.7 mph69%29.87 "Hg15 mi
1:00 PM72 °FPartly sunny.6 mph71%29.88 "Hg17 mi
12:00 PM72 °FPartly sunny.5 mph68%29.89 "Hg15 mi
11:00 AM71 °FPartly sunny.5 mph69%29.90 "Hg19 mi
10:00 AMN/APassing clouds.13 mphN/AN/A13 mi
9:00 AM67 °FLow clouds.N/A86%29.92 "Hg5 mi
8:00 AM63 °FFog.N/A92%29.93 "Hg4 mi
7:00 AM63 °FRain. Low clouds.N/A94%29.93 "Hg4 mi
Weather by CustomWeather, © 2014

See weather overviewHow to use our weather pages